Regional Weather Roundup
Issued by NWS

Home | Current Version | Previous Version | Text Only | Print | Product List | Glossary Off
Versions: 1 2 3 4 5 6 7 8 9 10 11 12 13 14 15 16 17 18 19 20 21 22 23 24 25 26 27 28 29 30 31 32 33 34 35 36 37 38 39 40 41 42 43 44 45 46 47 48 49 50

000
ASUS43 KFSD 301302
RWRSD

WEATHER ROUNDUP FOR SOUTH DAKOTA
NATIONAL WEATHER SERVICE SIOUX FALLS SD
800 AM CDT SAT AUG 30 2014

NOTE: "FAIR" INDICATES FEW OR NO CLOUDS BELOW 12,000 FEET WITH NO
SIGNIFICANT WEATHER AND/OR OBSTRUCTIONS TO VISIBILITY.


SDZ001>005-009-010-012>017-301400-
NORTHWEST AND NORTH CENTRAL SOUTH DAKOTA

CITY           SKY/WX    TMP DP  RH WIND       PRES   REMARKS
BUFFALO          N/A     54  53  97 SE15      29.86F
FAITH            N/A     54  54 100 SE14      29.95S
MOBRIDGE       CLEAR     51  51 100 E3        29.95S
$$

SDZ012>016-024>037-041>051-057-063-072>074-301400-
SOUTHWEST AND SOUTH CENTRAL SOUTH DAKOTA

CITY           SKY/WX    TMP DP  RH WIND       PRES   REMARKS
RAPID CTY ARPT CLEAR     52  51  97 SE7       29.95S
PIERRE         CLEAR     52  52 100 E3        29.96S FOG
CUSTER         CLEAR     48  46  93 NW5       30.04F
ELLSWORTH AFB  CLEAR     55  55  97 SE12      29.93F
PHILIP         MOCLDY    53  52  96 E6        29.97R FOG
PINE RIDGE     CLEAR     56  53  90 CALM      29.96F
WINNER         FOG       54  54 100 SW5       29.99R VSB<1/4
$$

SDZ004>011-016>023-039-040-301400-
NORTHEAST SOUTH DAKOTA

CITY           SKY/WX    TMP DP  RH WIND       PRES   REMARKS
ABERDEEN       CLOUDY    56  55  97 N9        29.95S
WATERTOWN      CLOUDY    59  57  93 N10       29.92S
SISSETON         N/A     59  56  89 N12       29.91S
$$

SDZ017-020-022-023-036>040-048>070-301400-
SOUTHEAST SOUTH DAKOTA

CITY           SKY/WX    TMP DP  RH WIND       PRES   REMARKS
SIOUX FALLS    CLOUDY    63  62  97 NW8       29.92R
HURON          CLOUDY    60  57  89 N8        29.94S
CHAMBERLAIN    FOG       54  54 100 CALM      29.98S VSB<1/4
MITCHELL       CLOUDY    60  58  92 N8        29.94F
YANKTON        CLOUDY    59  57  94 NW13      29.95R
$$

ABBREVIATIONS USED IN REMARKS
   TC - TEMPERATURE IN CELSIUS
  WCI - WIND CHILL INDEX
   HX - HEAT INDEX
  VSB - VISIBILITY



USA.gov is the U.S. government's official web portal to all federal, state and local government web resources and services.